Time,TemperatureF,DewpointF,PressureIn,WindDirection,WindDirectionDegrees,WindSpeedMPH,WindSpeedGustMPH,Humidity,HourlyPrecipIn,Conditions,Clouds,dailyrainin,SoftwareType,DateUTC
2013-02-05 00:05:00,17.8,12.0,29.93,ENE,62,0.0,1.0,79,0.00,,,0.00,weatherlink.com 1.10,2013-02-05 05:05:00,
2013-02-05 00:21:00,18.1,13.0,29.93,ENE,62,0.0,0.0,79,0.00,,,0.00,weatherlink.com 1.10,2013-02-05 05:21:00,
2013-02-05 00:37:00,18.3,13.0,29.93,ENE,63,0.0,1.0,78,0.00,,,0.00,weatherlink.com 1.10,2013-02-05 05:37:00,
2013-02-05 00:52:00,18.3,13.0,29.93,ENE,62,0.0,0.0,78,0.00,,,0.00,weatherlink.com 1.10,2013-02-05 05:52:00,
2013-02-05 01:08:00,18.4,13.0,29.93,ENE,62,0.0,0.0,79,0.00,,,0.00,weatherlink.com 1.10,2013-02-05 06:08:00,
2013-02-05 01:24:00,18.6,13.0,29.93,ENE,62,0.0,0.0,78,0.00,,,0.00,weatherlink.com 1.10,2013-02-05 06:24:00,
2013-02-05 01:40:00,18.8,13.0,29.93,ENE,62,0.0,0.0,78,0.00,,,0.00,weatherlink.com 1.10,2013-02-05 06:40:00,
2013-02-05 01:55:00,18.8,13.0,29.93,ENE,62,0.0,0.0,78,0.00,,,0.00,weatherlink.com 1.10,2013-02-05 06:55:00,
2013-02-05 02:12:00,18.9,14.0,29.94,ENE,62,0.0,0.0,80,0.00,,,0.00,weatherlink.com 1.10,2013-02-05 07:12:00,
2013-02-05 02:27:00,18.9,13.0,29.93,ENE,62,0.0,0.0,78,0.00,,,0.00,weatherlink.com 1.10,2013-02-05 07:27:00,
2013-02-05 02:43:00,18.8,13.0,29.93,ENE,62,0.0,1.0,79,0.00,,,0.00,weatherlink.com 1.10,2013-02-05 07:43:00,
2013-02-05 02:59:00,18.8,13.0,29.93,ENE,62,0.0,1.0,79,0.00,,,0.00,weatherlink.com 1.10,2013-02-05 07:59:00,
2013-02-05 03:15:00,18.8,13.0,29.92,ENE,62,0.0,0.0,79,0.00,,,0.00,weatherlink.com 1.10,2013-02-05 08:15:00,
2013-02-05 03:31:00,18.9,13.0,29.93,ENE,62,0.0,0.0,79,0.00,,,0.00,weatherlink.com 1.10,2013-02-05 08:31:00,
2013-02-05 03:47:00,18.9,13.0,29.93,ENE,62,0.0,0.0,79,0.00,,,0.00,weatherlink.com 1.10,2013-02-05 08:47:00,
2013-02-05 04:03:00,19.0,13.0,29.93,ENE,62,0.0,0.0,78,0.00,,,0.00,weatherlink.com 1.10,2013-02-05 09:03:00,
2013-02-05 04:18:00,19.0,13.0,29.93,ENE,63,0.0,0.0,77,0.00,,,0.00,weatherlink.com 1.10,2013-02-05 09:18:00,
2013-02-05 04:34:00,19.1,13.0,29.93,ENE,62,0.0,1.0,77,0.00,,,0.00,weatherlink.com 1.10,2013-02-05 09:34:00,
2013-02-05 04:50:00,19.0,13.0,29.93,North,353,0.0,1.0,76,0.00,,,0.00,weatherlink.com 1.10,2013-02-05 09:50:00,
2013-02-05 05:06:00,18.9,13.0,29.93,WNW,298,0.0,0.0,77,0.00,,,0.00,weatherlink.com 1.10,2013-02-05 10:06:00,
2013-02-05 05:22:00,19.0,13.0,29.93,WNW,298,0.0,1.0,77,0.00,,,0.00,weatherlink.com 1.10,2013-02-05 10:22:00,
2013-02-05 05:37:00,19.0,13.0,29.94,NW,326,0.0,0.0,76,0.00,,,0.00,weatherlink.com 1.10,2013-02-05 10:37:00,
2013-02-05 05:54:00,19.1,13.0,29.93,NW,326,0.0,0.0,77,0.00,,,0.00,weatherlink.com 1.10,2013-02-05 10:54:00,
2013-02-05 06:10:00,19.0,13.0,29.94,NW,326,0.0,1.0,77,0.00,,,0.00,weatherlink.com 1.10,2013-02-05 11:10:00,
2013-02-05 06:26:00,19.0,13.0,29.94,North,349,0.0,1.0,77,0.00,,,0.00,weatherlink.com 1.10,2013-02-05 11:26:00,
2013-02-05 06:41:00,19.0,12.0,29.95,NNW,338,1.0,2.0,75,0.00,,,0.00,weatherlink.com 1.10,2013-02-05 11:41:00,
2013-02-05 06:57:00,19.1,13.0,29.96,NNW,334,0.0,1.0,76,0.00,,,0.00,weatherlink.com 1.10,2013-02-05 11:57:00,
2013-02-05 07:13:00,19.1,12.0,29.97,NNW,336,0.0,1.0,75,0.00,,,0.00,weatherlink.com 1.10,2013-02-05 12:13:00,
2013-02-05 07:29:00,19.2,13.0,29.97,NW,326,0.0,1.0,75,0.00,,,0.00,weatherlink.com 1.10,2013-02-05 12:29:00,
2013-02-05 07:45:00,19.3,12.0,29.98,NNW,334,1.0,3.0,73,0.00,,,0.00,weatherlink.com 1.10,2013-02-05 12:45:00,
2013-02-05 08:01:00,19.5,12.0,29.98,WNW,290,1.0,2.0,71,0.00,,,0.00,weatherlink.com 1.10,2013-02-05 13:01:00,
2013-02-05 08:17:00,19.5,10.0,29.98,WNW,295,0.0,4.0,65,0.00,,,0.00,weatherlink.com 1.10,2013-02-05 13:17:00,
2013-02-05 08:32:00,19.8,11.0,29.98,WNW,302,0.0,4.0,67,0.00,,,0.00,weatherlink.com 1.10,2013-02-05 13:32:00,
2013-02-05 08:48:00,20.1,12.0,29.98,North,350,0.0,4.0,69,0.00,,,0.00,weatherlink.com 1.10,2013-02-05 13:48:00,
2013-02-05 09:04:00,20.1,11.0,29.99,North,350,3.0,5.0,67,0.00,,,0.00,weatherlink.com 1.10,2013-02-05 14:04:00,
2013-02-05 09:20:00,20.1,11.0,29.99,NNW,339,1.0,3.0,66,0.00,,,0.00,weatherlink.com 1.10,2013-02-05 14:20:00,
2013-02-05 09:36:00,20.6,10.0,29.99,East,79,0.0,2.0,63,0.00,,,0.00,weatherlink.com 1.10,2013-02-05 14:36:00,
2013-02-05 09:51:00,21.4,10.0,29.99,WNW,302,1.0,4.0,61,0.00,,,0.00,weatherlink.com 1.10,2013-02-05 14:51:00,
2013-02-05 10:08:00,21.7,10.0,29.99,ESE,114,1.0,3.0,60,0.00,,,0.00,weatherlink.com 1.10,2013-02-05 15:08:00,
2013-02-05 10:24:00,24.1,10.0,29.99,North,11,3.0,5.0,54,0.00,,,0.00,weatherlink.com 1.10,2013-02-05 15:24:00,
2013-02-05 10:39:00,23.3,9.0,29.99,NNW,339,1.0,7.0,55,0.00,,,0.00,weatherlink.com 1.10,2013-02-05 15:39:00,
2013-02-05 10:55:00,23.8,10.0,29.98,WNW,302,3.0,7.0,54,0.00,,,0.00,weatherlink.com 1.10,2013-02-05 15:55:00,
2013-02-05 11:11:00,25.8,10.0,29.98,SE,145,1.0,3.0,51,0.00,,,0.00,weatherlink.com 1.10,2013-02-05 16:11:00,
2013-02-05 11:27:00,25.1,10.0,29.97,WNW,295,2.0,6.0,53,0.00,,,0.00,weatherlink.com 1.10,2013-02-05 16:27:00,
2013-02-05 11:43:00,25.6,11.0,29.96,WNW,295,0.0,3.0,54,0.00,,,0.00,weatherlink.com 1.10,2013-02-05 16:43:00,
2013-02-05 11:59:00,26.0,11.0,29.95,NNW,333,4.0,6.0,53,0.00,,,0.00,weatherlink.com 1.10,2013-02-05 16:59:00,
2013-02-05 12:15:00,26.5,11.0,29.94,ESE,118,0.0,3.0,52,0.00,,,0.00,weatherlink.com 1.10,2013-02-05 17:15:00,
2013-02-05 12:31:00,26.1,11.0,29.93,West,260,1.0,5.0,53,0.00,,,0.00,weatherlink.com 1.10,2013-02-05 17:31:00,
2013-02-05 12:49:00,26.3,11.0,29.92,NNW,339,6.0,8.0,53,0.00,,,0.00,weatherlink.com 1.10,2013-02-05 17:49:00,
2013-02-05 13:02:00,26.2,11.0,29.92,NW,316,2.0,6.0,53,0.00,,,0.00,weatherlink.com 1.10,2013-02-05 18:02:00,
2013-02-05 13:18:00,27.7,12.0,29.92,NNW,340,7.0,9.0,51,0.00,,,0.00,weatherlink.com 1.10,2013-02-05 18:18:00,
2013-02-05 13:34:00,27.7,12.0,29.92,WSW,245,1.0,6.0,51,0.00,,,0.00,weatherlink.com 1.10,2013-02-05 18:34:00,
2013-02-05 13:50:00,28.1,12.0,29.91,WNW,295,6.0,7.0,50,0.00,,,0.00,weatherlink.com 1.10,2013-02-05 18:50:00,
2013-02-05 14:06:00,29.2,12.0,29.90,WNW,288,3.0,5.0,48,0.00,,,0.00,weatherlink.com 1.10,2013-02-05 19:06:00,
2013-02-05 14:22:00,29.3,12.0,29.89,NW,323,2.0,7.0,49,0.00,,,0.00,weatherlink.com 1.10,2013-02-05 19:22:00,
2013-02-05 14:38:00,29.2,12.0,29.89,North,351,1.0,6.0,48,0.00,,,0.00,weatherlink.com 1.10,2013-02-05 19:38:00,
2013-02-05 14:54:00,30.0,13.0,29.89,NNW,338,2.0,6.0,48,0.00,,,0.00,weatherlink.com 1.10,2013-02-05 19:54:00,
2013-02-05 15:09:00,29.6,12.0,29.88,NNW,342,3.0,7.0,48,0.00,,,0.00,weatherlink.com 1.10,2013-02-05 20:09:00,
2013-02-05 15:25:00,29.3,12.0,29.88,NNW,345,5.0,8.0,49,0.00,,,0.00,weatherlink.com 1.10,2013-02-05 20:25:00,
2013-02-05 15:41:00,29.1,13.0,29.88,NNE,26,5.0,6.0,50,0.00,,,0.00,weatherlink.com 1.10,2013-02-05 20:41:00,
2013-02-05 15:57:00,28.8,12.0,29.89,NNW,328,1.0,4.0,50,0.00,,,0.00,weatherlink.com 1.10,2013-02-05 20:57:00,
2013-02-05 16:13:00,28.6,12.0,29.89,NNW,331,3.0,4.0,50,0.00,,,0.00,weatherlink.com 1.10,2013-02-05 21:13:00,
2013-02-05 16:28:00,28.5,13.0,29.87,NW,307,1.0,3.0,51,0.00,,,0.00,weatherlink.com 1.10,2013-02-05 21:28:00,
2013-02-05 16:44:00,28.2,12.0,29.88,NNW,334,0.0,5.0,51,0.00,,,0.00,weatherlink.com 1.10,2013-02-05 21:44:00,
2013-02-05 17:00:00,28.1,13.0,29.87,NNW,334,1.0,3.0,53,0.00,,,0.00,weatherlink.com 1.10,2013-02-05 22:00:00,
2013-02-05 17:16:00,27.8,12.0,29.87,NNW,340,3.0,3.0,52,0.00,,,0.00,weatherlink.com 1.10,2013-02-05 22:16:00,
2013-02-05 17:32:00,27.6,13.0,29.87,NNW,345,0.0,1.0,53,0.00,,,0.00,weatherlink.com 1.10,2013-02-05 22:32:00,
2013-02-05 17:48:00,27.4,13.0,29.86,NNW,340,0.0,1.0,55,0.00,,,0.00,weatherlink.com 1.10,2013-02-05 22:48:00,
2013-02-05 18:04:00,27.3,13.0,29.86,NNW,340,0.0,1.0,54,0.00,,,0.00,weatherlink.com 1.10,2013-02-05 23:04:00,
2013-02-05 18:20:00,27.0,13.0,29.86,NNW,342,0.0,2.0,54,0.00,,,0.00,weatherlink.com 1.10,2013-02-05 23:20:00,
2013-02-05 18:36:00,26.7,13.0,29.86,NNW,341,0.0,1.0,56,0.00,,,0.00,weatherlink.com 1.10,2013-02-05 23:36:00,
2013-02-05 18:52:00,26.5,12.0,29.87,NNW,342,0.0,1.0,55,0.00,,,0.00,weatherlink.com 1.10,2013-02-05 23:52:00,
2013-02-05 19:07:00,26.1,13.0,29.88,NNW,342,0.0,1.0,56,0.00,,,0.00,weatherlink.com 1.10,2013-02-06 00:07:00,
2013-02-05 19:23:00,25.3,13.0,29.88,NNW,339,0.0,1.0,59,0.00,,,0.00,weatherlink.com 1.10,2013-02-06 00:23:00,
2013-02-05 19:39:00,25.1,14.0,29.88,NNW,339,0.0,0.0,62,0.00,,,0.00,weatherlink.com 1.10,2013-02-06 00:39:00,
2013-02-05 19:55:00,25.3,14.0,29.88,NE,44,0.0,1.0,63,0.00,,,0.00,weatherlink.com 1.10,2013-02-06 00:55:00,
2013-02-05 20:11:00,25.6,15.0,29.88,NE,44,0.0,1.0,64,0.00,,,0.00,weatherlink.com 1.10,2013-02-06 01:11:00,
2013-02-05 20:27:00,25.7,15.0,29.88,NE,46,0.0,1.0,63,0.00,,,0.00,weatherlink.com 1.10,2013-02-06 01:27:00,
2013-02-05 20:43:00,25.9,15.0,29.87,East,91,0.0,1.0,63,0.00,,,0.00,weatherlink.com 1.10,2013-02-06 01:43:00,
2013-02-05 20:59:00,26.2,15.0,29.87,SE,141,0.0,1.0,62,0.00,,,0.00,weatherlink.com 1.10,2013-02-06 01:59:00,
2013-02-05 21:14:00,26.6,15.0,29.86,ESE,106,0.0,2.0,62,0.00,,,0.00,weatherlink.com 1.10,2013-02-06 02:14:00,
2013-02-05 21:30:00,27.1,16.0,29.87,ESE,113,0.0,6.0,63,0.00,,,0.00,weatherlink.com 1.10,2013-02-06 02:30:00,
2013-02-05 21:46:00,27.3,18.0,29.87,ESE,105,6.0,7.0,67,0.00,,,0.00,weatherlink.com 1.10,2013-02-06 02:46:00,
2013-02-05 22:02:00,27.4,19.0,29.87,SE,141,3.0,7.0,70,0.00,,,0.00,weatherlink.com 1.10,2013-02-06 03:02:00,
2013-02-05 22:18:00,27.4,19.0,29.87,ESE,115,1.0,6.0,70,0.00,,,0.00,weatherlink.com 1.10,2013-02-06 03:18:00,
2013-02-05 22:33:00,27.4,19.0,29.87,East,91,1.0,7.0,71,0.00,,,0.00,weatherlink.com 1.10,2013-02-06 03:33:00,
2013-02-05 22:49:00,27.4,20.0,29.87,ENE,71,1.0,6.0,73,0.00,,,0.00,weatherlink.com 1.10,2013-02-06 03:49:00,
2013-02-05 23:05:00,27.4,20.0,29.87,East,99,1.0,7.0,74,0.00,,,0.00,weatherlink.com 1.10,2013-02-06 04:05:00,
2013-02-05 23:21:00,27.4,21.0,29.87,ESE,106,1.0,6.0,76,0.00,,,0.00,weatherlink.com 1.10,2013-02-06 04:21:00,
2013-02-05 23:36:00,27.5,21.0,29.87,ESE,114,5.0,7.0,77,0.00,,,0.00,weatherlink.com 1.10,2013-02-06 04:36:00,
2013-02-05 23:52:00,27.5,22.0,29.87,ESE,122,2.0,6.0,78,0.00,,,0.00,weatherlink.com 1.10,2013-02-06 04:52:00,